カタログに戻る

DELTA 1 DEB

運用中SSO
NORAD 17765·DEBRIS·🇺🇸 United States

打ち上げ Mar 5, 1978 から Vandenberg Space Force Base

Loading…

次のパス (今後24時間)

TLE

最新Source: Space-Track

元期: Sep 13, 2026, 18:27 UTC

1 17765U 78026GX  26256.76910771 -.00000004  00000-0  26998-4 0  9991
2 17765  99.0302 350.4278 0042197  54.6909  76.2227 13.98914694112347

AllMySatでDELTA 1 DEBをリアルタイム追跡

Download on the App Store